Date,TemperatureHighF,TemperatureAvgF,TemperatureLowF,DewpointHighF,DewpointAvgF,DewpointLowF,HumidityHigh,HumidityAvg,HumidityLow,PressureMaxIn,PressureMinIn,WindSpeedMaxMPH,WindSpeedAvgMPH,GustSpeedMaxMPH,PrecipitationSumIn
2013-10-1,82.1,67.0,57.1,69.1,62.4,55.9,97,86,59,30.19,30.08,4,0,8,0.00
2013-10-2,83.2,70.0,62.3,72.6,66.1,61.1,97,88,63,30.21,30.09,6,0,6,0.00
2013-10-3,85.2,72.3,64.5,71.6,66.8,62.7,97,84,54,30.16,30.07,6,0,10,0.00
2013-10-4,83.9,69.6,60.8,72.0,65.5,59.6,97,88,62,30.21,30.11,4,0,6,0.00
2013-10-5,87.3,71.7,63.0,73.5,67.1,61.8,97,87,56,30.17,30.02,5,0,8,0.00
2013-10-6,84.9,71.6,59.3,71.3,66.5,57.0,97,85,59,30.04,29.84,18,2,19,0.08
2013-10-7,71.5,60.7,52.8,56.7,53.9,49.9,99,80,51,30.10,29.93,11,1,14,0.02
2013-10-8,74.7,60.1,49.2,59.1,52.1,46.9,95,77,50,30.17,30.09,11,1,14,0.00
2013-10-9,78.9,63.0,52.1,64.3,57.3,51.0,97,83,55,30.24,30.13,4,0,5,0.00
2013-10-10,79.2,64.2,54.5,63.1,57.5,53.3,99,81,51,30.19,30.07,10,1,12,0.00
2013-10-11,82.0,63.7,52.5,63.7,57.1,51.4,97,82,44,30.12,30.01,4,0,6,0.00
2013-10-12,83.7,64.9,53.6,66.0,58.6,52.5,97,83,45,30.15,30.05,6,0,6,0.00
2013-10-13,82.6,66.4,54.1,65.2,59.2,52.7,98,80,48,30.25,30.14,7,0,10,0.00
2013-10-14,80.9,67.3,57.1,67.4,61.8,55.9,97,84,57,30.26,30.12,6,0,10,0.00
2013-10-15,73.3,66.7,61.6,64.7,62.2,59.5,96,86,71,30.17,30.06,8,1,9,0.00
2013-10-16,69.9,64.4,60.3,64.2,60.6,57.8,96,88,76,30.09,29.98,6,0,9,0.02
2013-10-17,68.2,62.8,50.3,67.0,60.5,48.9,97,92,80,30.04,29.90,6,1,9,0.20
2013-10-18,66.3,55.1,47.7,54.5,50.0,46.6,97,85,54,30.11,29.99,7,1,9,0.00
2013-10-19,68.1,55.1,44.8,57.8,51.0,42.9,96,87,66,30.07,29.93,7,0,11,0.00
2013-10-20,66.8,49.3,38.0,49.8,43.4,36.7,97,82,48,30.14,30.05,7,0,10,0.00
2013-10-21,70.1,53.5,42.9,54.8,47.7,41.6,97,83,47,30.16,30.02,8,1,11,0.00
2013-10-22,66.6,57.4,50.3,56.3,52.3,48.0,93,84,65,30.04,29.88,4,0,8,0.00
2013-10-23,53.0,47.9,37.5,48.3,41.7,35.3,95,80,57,30.13,29.84,4,0,9,0.00
2013-10-24,57.5,46.9,36.4,44.1,40.0,34.2,94,78,57,30.32,30.12,8,1,11,0.00
2013-10-25,54.0,40.7,30.6,35.3,30.7,27.5,91,70,38,30.48,30.32,14,1,15,0.00
2013-10-26,60.0,44.4,29.8,40.0,34.1,28.2,95,71,39,30.37,30.13,13,2,15,0.00
2013-10-27,62.7,54.3,46.4,54.0,46.5,38.1,92,75,61,30.17,30.10,5,0,5,0.00
2013-10-28,62.9,56.3,51.8,57.0,53.0,-99.9,96,90,79,30.30,30.14,8,0,8,0.00
2013-10-29,68.9,57.6,49.9,60.8,54.9,48.7,97,91,73,30.37,30.24,5,0,5,0.00
2013-10-30,81.7,65.3,55.9,63.3,58.1,54.6,97,80,48,30.30,30.14,12,1,12,0.00
2013-10-31,72.5,64.6,58.2,64.8,60.5,56.1,95,87,74,30.16,29.68,28,3,28,0.05